Location: Pianadetto
(44.4000°N, 10.1000°E)
Time: 03:01:42
(UTC+00:00)

EO 1 Del DPAF - Pass Details

Date: 26 May 2022
Orbit: 462 x 465 km, 98.0° (Epoch: 26 June)

Event Time Altitude Azimuth Distance (km) Brightness Sun altitude
Rises 01:57:30 0° 9° (N) 2,534 7.8 -14.9°
Reaches altitude 10° 01:59:35 10° 5° (N) 1,648 6.6 -14.7°
Maximum altitude 02:03:03 57° 287° (WNW) 561 3.2 -14.3°
Enters shadow 02:04:45 27° 218° (SW) 943 3.9 -14.1°
